Flag for Poland Weather past 2 weeks in Toruń, Poland

Now
54 °F

Fog.


Feels Like: 54 °F
Forecast: 54 / 86 °F
Wind: 1 mph from West

Location: Torun

Current Time: Aug 29, 2015 at 3:00:44 AM

Latest Report: Aug 29, 2015 at 2:00 AM


Visibility: 3 mi

Pressure: 30.17 "Hg

Humidity: 95%

Dew point: 53 °F

Location of ToruńLocation

Historic Weather in Toruń — Graph

°F

Toruń temperature yesterday

Maximum temperature yesterday: 71 °F (at 1:00 AM)
Minimum temperature yesterday: 60 °F (at 9:00 PM)
Average temperature yesterday: 67 °F

Past Weeks' High & Low Weather Summary

 TemperatureHumidityPressure
High89 °F (Aug 15, 4:00 PM)95% (Aug 25, 3:00 PM)30.37 "Hg (Aug 25, 3:00 PM)
Low46 °F (Aug 21, 5:00 AM)22% (Aug 18, 5:00 PM)29.75 "Hg (Aug 15, 6:00 PM)
Average70 °F51%30.04 "Hg
* Reported Aug 14 1:00 AM — Aug 29 1:00 AM, Toruń, Weather by CustomWeather, © 2015

Note: Actual official high and low records may vary slightly from our data, if they occured in-between our weather recording intervals... More about our weather records

Advertising

Toruń weather history for previous 24 hours

 ConditionsComfort  
Time TempWeatherWind HumidityBarometerVisibility
1:00 AM
Sat, Aug 29
57 °FClear.2 mph92%30.16 "Hg16 mi
11:00 PM
Fri, Aug 28
60 °FClear.2 mph89%30.12 "Hg28 mi
9:00 PM60 °FPassing clouds.2 mph89%30.10 "Hg28 mi
8:00 PM65 °FPassing clouds.1 mph76%30.08 "Hg31 mi
7:00 PM68 °FOvercast.1 mph72%30.06 "Hg31 mi
6:00 PM68 °FOvercast.3 mph72%30.05 "Hg31 mi
5:00 PM70 °FOvercast.2 mph72%30.04 "Hg31 mi
4:00 PM69 °FOvercast.2 mph76%30.03 "Hg31 mi
3:00 PM69 °FOvercast.2 mph76%30.02 "Hg31 mi
2:00 PM69 °FOvercast.2 mph78%30.00 "Hg25 mi
1:00 PM67 °FOvercast.2 mph83%29.99 "Hg28 mi
12:00 PM66 °FOvercast.2 mph88%29.97 "Hg14 mi
11:00 AM67 °FLight rain. Overcast.1 mph90%29.94 "Hg6 mi
10:00 AM67 °FLight rain. Overcast.1 mph89%29.92 "Hg5 mi
9:00 AM66 °FLight rain. Overcast.1 mph89%29.91 "Hg6 mi
8:00 AM67 °FLight rain. Overcast.1 mph81%29.89 "Hg4 mi
7:00 AM68 °FOvercast.1 mph72%29.88 "Hg9 mi
5:00 AM69 °FOvercast.3 mph66%29.83 "Hg17 mi
4:00 AM70 °FOvercast.3 mph64%29.83 "Hg22 mi
3:00 AM69 °FPassing clouds.3 mph64%29.83 "Hg25 mi
Weather by CustomWeather, © 2015

See weather overviewHow to use our weather pages